Location: �coust
(50.1801°N, 2.9124°E)
Time: 00:15:37
(UTC+00:00)

Daily predictions for brighter satellites

Satellite Brightness Start Highest point End
(mag) Time Altitude Azimuth Time Altitude Azimuth Time Altitude Azimuth
Cosmos 1943 Rocket 4.3 03:12:50 21° NE 03:12:50 21° NE 03:14:53 10° NE
CENTAUR R/B 3.1 03:44:24 56° ENE 03:44:24 56° ENE 03:50:10 10° NE
Cosmos 2278 Rocket 4.4 03:51:48 15° NNE 03:51:48 15° NNE 03:52:54 10° NNE
NOSS 3-2 (A) 3.9 04:04:16 53° NNE 04:04:16 53° NNE 04:09:27 10° NE
NOSS 3-2 (C) 3.4 04:12:49 76° ENE 04:12:49 76° ENE 04:18:59 10° NE
Meteor 2-3 Rocket 4.3 04:20:25 47° NNE 04:20:25 47° NNE 04:24:28 10° NNE
BREEZE-M DEB (TANK) 4.1 04:21:03 39° S 04:21:03 39° S 04:29:11 10° SE
Envisat 4.3 04:18:33 10° NNE 04:23:18 38° E 04:28:01 10° SSE
Cosmos 968 Rocket 4.1 04:27:18 46° NNE 04:27:18 46° NNE 04:30:52 10° NNE
Cosmos 2297 Rocket 4.4 04:25:42 13° N 04:28:35 18° NE 04:32:25 10° ENE
Cosmos 2098 Rocket 3.7 04:32:19 28° SSE 04:34:30 60° E 04:39:48 10° NNE
Cosmos 2369 Rocket 2.2 04:34:16 53° S 04:35:36 78° ESE 04:41:14 10° NNE
Cosmos 2344 3.5 04:34:44 56° WNW 04:35:48 61° NW 04:43:57 10° NE
SL-19 R/B 4.1 04:34:38 10° SSE 04:40:12 85° WSW 04:41:27 57° NNW
USA 238 DEB 3.5 04:39:34 63° W 04:40:24 69° NW 04:47:22 10° NE
USA 238 3.5 04:39:39 63° W 04:40:30 70° NW 04:47:28 10° NE
Cosmos 2279 Rocket 4.0 04:34:53 10° N 04:41:07 77° E 04:47:18 10° SSE
Cosmos 1656 Rocket 3.9 04:37:55 22° S 04:41:22 64° ESE 04:46:47 10° NE
COSMO-SKYMED 1 2.8 04:38:24 10° SSE 04:42:42 68° ENE 04:42:51 67° ENE
H-2A R/B 4.1 04:39:53 10° NNE 04:46:53 12° S 04:47:10 10° S
Meteor 1-31 Rocket 4.2 04:40:23 10° NNE 04:44:03 38° E 04:47:43 10° SSE
USA 215 3.2 04:38:16 10° ESE 04:44:49 83° NNE 04:46:50 48° NW
Helios 1B 4.5 04:46:05 10° SSE 04:50:20 83° ESE 04:50:20 83° ESE
Cosmos 1943 Rocket 2.8 04:54:24 40° NNW 04:54:24 40° NNW 04:58:48 10° NNE
CZ-2C R/B 2.6 04:48:51 10° SSE 04:54:19 89° ENE 04:57:37 25° NNW
Kosmos-917 4.1 04:57:03 61° NNE 04:57:03 61° NNE 05:01:47 10° NE
Cosmos 1634 Rocket 4.0 04:58:14 39° NW 05:00:12 54° W 05:06:13 10° SSW
Gblst 52 Del rocket 4.4 04:59:59 50° W 05:01:44 81° N 05:08:40 10° E
Cosmos 2227 Rocket 4.2 05:00:32 11° N 05:04:42 22° NE 05:08:59 10° E
Cosmos 1862 3.5 05:07:19 57° N 05:07:19 57° N 05:10:33 10° N
SKYMED 3 4.4 05:02:29 10° S 05:06:50 72° WSW 05:07:15 66° WNW
Cosmos 1515 Rocket 3.8 05:06:34 19° N 05:09:37 69° E 05:13:55 10° SSE
Landsat 5 3.5 05:06:04 10° SSE 05:10:35 85° WSW 05:12:33 34° NNW
ADEOS 4.4 05:07:18 10° NNE 05:12:25 52° E 05:17:30 10° S
SJ 16-02 3.0 05:09:03 10° SSE 05:13:00 34° ESE 05:16:59 10° NE
Tsikada Rocket 4.4 05:16:30 37° W 05:17:00 38° WNW 05:22:51 10° N
BREEZE-M DEB (TANK) 2.7 05:16:52 61° WSW 05:17:25 83° S 05:24:37 10° E
Meteor 2-8 Rocket 4.3 05:17:01 10° NNW 05:23:09 69° W 05:29:11 10° S
COSMOS 2487 3.4 05:23:41 24° N 05:25:17 42° ENE 05:28:30 10° SE
CZ-4C R/B 2.6 05:23:29 10° S 05:26:27 71° SW 05:26:27 71° SW
SJ-12 4.0 05:25:37 10° N 05:29:40 53° WNW 05:33:41 10° SSW
SKYMED 2 3.9 05:26:44 10° S 05:30:51 42° W 05:31:28 39° WNW
Cosmos 1500 Rocket 4.4 05:27:02 10° S 05:31:22 52° E 05:35:44 10° NNE
MOS 1-B Rocket 4.4 05:25:52 10° SSW 05:31:29 37° W 05:33:51 26° NW
CZ-2C R/B 3.8 05:26:47 10° NNE 05:31:34 53° E 05:36:32 10° S
Cosmos 2180 Rocket 4.4 05:27:11 10° NNW 05:33:15 61° W 05:39:16 10° S
Cosmos 2278 Rocket 4.1 05:33:39 13° NNW 05:33:39 13° NNW 05:35:56 10° N
CENTAUR R/B 3.2 05:31:36 29° WNW 05:34:18 41° NNW 05:41:29 10° NE
FALCON 9 DEB 3.2 05:37:32 44° N 05:37:36 44° N 05:40:24 10° ENE
CZ-4B R/B 3.6 05:36:02 10° NNE 05:39:32 49° E 05:43:01 10° S
Cosmos 1503 Rocket 4.0 05:34:47 10° SW 05:40:01 62° WNW 05:45:22 10° NNE
FALCON 9 DEB 3.1 05:40:01 45° N 05:40:11 46° N 05:42:57 10° E
FALCON 9 DEB 3.0 05:40:11 46° N 05:40:23 47° N 05:43:10 10° E
Meteor 1-27 Rocket 3.7 05:34:54 10° NNW 05:40:33 79° W 05:46:19 10° S
ATLAS 5 CENTAUR R/B 2.4 05:36:55 10° SSW 05:40:37 47° SE 05:44:49 10° NE
Meteor PRIRODA 4.0 05:40:47 10° NNE 05:44:24 65° ESE 05:47:59 10° S
H-2A R/B 2.3 05:40:20 10° SSE 05:44:36 71° ENE 05:49:00 10° N
Cosmos 1777 Rocket 4.1 05:42:10 10° SSW 05:47:22 78° ESE 05:52:39 10° NNE
USA 32 4.2 05:42:42 10° N 05:47:58 74° E 05:53:12 10° SSE
Cosmos 773 Rocket 4.2 05:45:01 21° NW 05:48:12 48° WSW 05:53:09 10° S
Lacrosse 4 Rocket 3.6 05:46:40 10° NNW 05:50:08 22° NE 05:53:37 10° E
Cosmos 1515 3.7 05:49:06 10° N 05:52:56 81° E 05:56:44 10° SSE
NOSS 3-2 (A) 4.5 05:51:40 21° WNW 05:54:44 31° NNW 06:00:59 10° NE
SL-27 R/B 3.2 05:54:53 29° WNW 05:55:38 32° WSW 05:58:49 10° SSW
Cosmos 1340 Rocket 2.8 05:51:49 10° S 05:55:46 86° E 05:59:48 10° NNE
Okean 3 Rocket 4.3 05:52:22 10° SW 05:56:28 32° WNW 06:00:34 10° N
Cosmos 1766 Rocket 4.4 05:55:42 10° SW 05:59:23 26° WNW 06:03:04 10° N
Envisat 3.5 05:57:41 10° N 06:02:17 35° WNW 06:06:51 10° SW
NOSS 3-2 (C) 4.2 06:00:16 19° WNW 06:04:00 36° NNW 06:10:24 10° NE
DMSP B5D2-2 4.1 05:58:59 10° S 06:04:06 57° W 06:09:16 10° NNW
ATLAS 3B R/B 3.1 05:57:39 10° SSW 06:04:07 67° SE 06:10:57 10° NE
FALCON 9 DEB 3.1 06:03:14 28° NW 06:04:23 47° N 06:07:12 10° E
Cosmos 158 Rocket 4.0 06:04:33 10° NNW 06:09:36 67° WSW 06:14:48 10° S
Meteor 1-25 Rocket 4.4 06:05:13 10° S 06:10:48 77° E 06:16:24 10° NNE
Cosmos 1939 Rocket 2.8 06:09:24 10° NNE 06:13:22 88° ESE 06:17:14 10° SSW
Cosmos 2297 Rocket 2.6 06:08:08 10° NNW 06:13:47 65° ENE 06:19:25 10° SE
PSLV R/B 4.3 06:10:44 10° SSE 06:14:46 65° ENE 06:18:51 10° N
FALCON 9 DEB 3.5 06:13:35 20° WNW 06:15:41 50° N 06:19:00 10° E
H-2A R/B 4.2 06:14:51 10° NNW 06:21:57 - WSW 06:17:13 17° WNW
Cosmos 1174 3.0 06:14:33 10° SW 06:17:31 75° NW 06:20:46 10° NE
Meteor 1-31 Rocket 3.9 06:15:08 10° NNW 06:18:15 23° WNW 06:21:22 10° WSW
COSMO-SKYMED 1 4.2 06:16:44 10° SW 06:19:20 15° W 06:20:04 15° WNW
Cosmos 2369 Rocket 3.2 06:16:09 12° W 06:20:15 25° NW 06:24:54 10° NNE
Cosmos 1607 4.0 06:17:00 11° NW 06:22:58 72° SW 06:29:05 10° SSE
Cosmos 1656 Rocket 4.5 06:20:45 10° WSW 06:25:24 28° NW 06:30:06 10° NNE
Cosmos 1633 Rocket 4.5 06:21:30 10° SSE 06:25:33 41° E 06:29:39 10° NNE
CZ-4B R/B 1.2 06:22:26 10° S 06:25:44 79° WSW 06:29:00 10° NNW
SL-4 R/B 4.5 06:24:01 10° S 06:26:48 21° SE 06:29:43 10° E
USA 215 3.9 06:22:11 10° SSE 06:28:14 40° SW 06:34:11 11° WNW
Okean 1 3.2 06:24:40 10° NNW 06:28:38 73° W 06:32:33 10° S
Cosmos 1408 Rocket 4.5 06:28:12 10° SW 06:31:48 25° WNW 06:35:25 10° NNW
CZ-2D R/B 3.6 06:28:59 10° NNE 06:32:47 69° ESE 06:36:33 10° S
CZ-2C R/B 4.2 06:32:08 10° WSW 06:35:20 16° W 06:38:30 10° NW
Cosmos 2263 Rocket 4.0 06:31:11 10° NNW 06:35:33 23° NE 06:39:54 10° E
Meteor 1-18 Rocket 4.3 06:30:04 10° NNW 06:35:58 84° W 06:41:42 10° S
NOAA 12 4.2 06:32:13 10° N 06:37:23 57° WNW 06:42:31 10° SW
Cosmos 1943 Rocket 3.9 06:35:57 10° WNW 06:38:43 14° NNW 06:41:36 10° N
FengYun 1-2 T 4.2 06:33:22 10° N 06:38:50 69° WNW 06:44:17 10° SSW
Nadezhda 4 Rocket 4.4 06:33:14 10° SW 06:39:00 40° WNW 06:44:53 10° N
Cosmos 2228 Rocket 3.6 06:36:56 10° NNW 06:41:09 40° W 06:45:21 10° SSW
Cosmos 1743 Rocket 4.1 06:37:28 10° SW 06:41:30 35° WNW 06:45:31 10° N
Cosmos 724 4.4 06:36:25 10° NW 06:42:22 83° NE 06:48:11 10° SE
Alouette 2 Rocket 4.4 06:41:52 10° NW 06:44:55 23° W 06:47:49 10° SSW
CORIOLIS 4.2 06:39:26 10° NNE 06:44:55 82° WNW 06:50:22 10° SSW
Lacrosse 5 4.4 06:42:05 10° S 06:46:18 27° SE 06:50:33 10° ENE
Meteor 2-4 Rocket 3.9 06:40:22 10° NNW 06:46:22 88° E 06:52:13 10° S
Cosmos 1378 3.8 06:44:42 10° N 06:48:24 56° ENE 06:52:04 10° SSE
Cosmos 2227 Rocket 2.3 06:43:57 10° NNW 06:49:39 83° ENE 06:55:18 10° SSE
SJ 16-02 2.1 06:47:42 10° WSW 06:51:36 31° WNW 06:55:32 10° N
ADEOS 4.4 06:47:15 10° N 06:51:41 28° WNW 06:56:05 10° WSW
Cosmos 1666 Rocket 3.7 06:48:08 10° S 06:52:36 89° WSW 06:57:08 10° N
Cosmos 1092 Rocket 4.3 06:50:31 10° SSW 06:56:34 48° WNW 07:02:42 10° N
